This is the latest recevied weather packets stored in our database for station/object F4DVI. If no packets are shown the sender has not sent any weather packets the latest 10 day(s).
| Time | Temp. | Humidity | Pressure | Rain* | Wind** | Luminosity | Snow |
|---|---|---|---|---|---|---|---|
| 1777997313 | 16.11° C | 77% | 0 hPa | 0 mm | - | - | - |
| 1777997013 | 16.67° C | 78% | 0 hPa | 0 mm | - | - | - |
| 1777996713 | 16.67° C | 78% | 0 hPa | 0 mm | - | - | - |
| 1777996413 | 16.67° C | 78% | 0 hPa | 0 mm | - | - | - |
| 1777996113 | 16.67° C | 78% | 0 hPa | 0 mm | - | - | - |
| 1777995813 | 16.67° C | 77% | 0 hPa | 0 mm | - | - | - |
| 1777995513 | 16.67° C | 77% | 0 hPa | 0 mm | - | - | - |
| 1777995213 | 17.22° C | 77% | 0 hPa | 0 mm | - | - | - |
| 1777994913 | 16.67° C | 78% | 0 hPa | 0 mm | - | - | - |
| 1777994613 | 17.22° C | 79% | 0 hPa | 0 mm | - | - | - |
| 1777994313 | 16.67° C | 79% | 0 hPa | 0 mm | - | - | - |
| 1777994013 | 16.11° C | 78% | 0 hPa | 0 mm | - | - | - |
| 1777993713 | 16.11° C | 78% | 0 hPa | 0 mm | - | - | - |
| 1777993413 | 16.67° C | 78% | 0 hPa | 0 mm | - | - | - |
| 1777993113 | 17.22° C | 77% | 0 hPa | 0 mm | - | - | - |
| 1777992813 | 16.67° C | 100% | 0 hPa | 0 mm | - | - | - |
| 1777992513 | 17.22° C | 78% | 0 hPa | 0 mm | - | - | - |
| 1777992203 | 16.67° C | 78% | 0 hPa | 0 mm | - | - | - |
| 1777991613 | 17.22° C | 78% | 0 hPa | 0 mm | - | - | - |
| 1777991313 | 17.22° C | 78% | 0 hPa | 0 mm | - | - | - |
| 1777991013 | 17.22° C | 80% | 0 hPa | 0 mm | - | - | - |
| 1777990713 | 16.67° C | 81% | 0 hPa | 0 mm | - | - | - |
| 1777990413 | 16.67° C | 81% | 0 hPa | 0 mm | - | - | - |
| 1777989813 | 15.56° C | 81% | 0 hPa | 0 mm | - | - | - |
| 1777989513 | 15° C | 81% | 0 hPa | 0 mm | - | - | - |
* Rain latest hour (hover to see other rain measurements)
** Current wind speed in m/s (hover to see current wind gust speed)